Flagstaff, AZ

9:25 AM MST on December 04, 2016 (GMT -0700)
Flagstaff Pulliam

Weather History for KFLG - April, 2013

Change the Weather History Date:

Wednesday, April 3, 2013

  Actual Average Record
Temperature  
Mean Temperature 43 °F 40 °F  
Max Temperature 62 °F 55 °F 71 °F (1961)
Min Temperature 23 °F 26 °F 8 °F (1980)
Degree Days  
Heating Degree Days 22 25  
Month to date heating degree days 68 75  
Since 1 July heating degree days 5704 5782  
Cooling Degree Days 0 0  
Month to date cooling degree days 0 0  
Year to date cooling degree days 0 0  
Moisture  
Dew Point 19 °F    
Average Humidity 50    
Maximum Humidity 85    
Minimum Humidity 14    
Precipitation  
Precipitation 0.00 in 0.05 in 1.02 in (1965)
Month to date precipitation 0.00 0.15  
Year to date precipitation 4.88 6.48  
Snow  
Snow 0.00 in 0.30 in 10.20 in (1965)
Month to date snowfall 0.0 1.0  
Since 1 July snowfall 68.3 94.9  
Snow Depth 0.00 in    
Sea Level Pressure  
Sea Level Pressure 30.07 in    
Wind  
Wind Speed 6 mph (ENE)    
Max Wind Speed 22 mph    
Max Gust Speed 29 mph    
Visibility 10 miles    
Events      
T = Trace of Precipitation, MM = Missing Value Source: NWS Daily Summary

Daily Weather History Graph

Daily Weather History Graph

Search for Another Location

Airport or City:

Trip Planner

Search our weather history database for the weather conditions in past years. The results will help you decide how hot, cold, wet, or windy it might be!

Date:

Astronomy

Apr. 03, 2013 Rise Set
Actual Time 6:10 AM MST 6:49 PM MST
Civil Twilight 5:44 AM MST 7:15 PM MST
Nautical Twilight 5:14 AM MST 7:45 PM MST
Astronomical Twilight 4:43 AM MST 8:16 PM MST
Moon 1:39 AM MST (4/3) 12:19 PM MST (4/3)
Length of Visible Light 13h 30m
Length of Day
12h 39m
Last Quarter, 43% of the Moon is Illuminated
Apr 3
Last Quarter
Apr 10
New
Apr 18
First Quarter
Apr 25
Full
May 2
Last Quarter

Hourly Weather History & Observations

Time (MST) Temp. Windchill Dew Point Humidity Pressure Visibility Wind Dir Wind Speed Gust Speed Precip Events Conditions
12:57 AM 28.9 °F - 24.1 °F 82% 30.01 in 10.0 mi Calm Calm - N/A   Clear
1:57 AM 28.0 °F - 23.0 °F 81% 30.01 in 10.0 mi Calm Calm - N/A   Clear
2:57 AM 27.0 °F - 21.9 °F 81% 30.02 in 10.0 mi Calm Calm - N/A   Clear
3:57 AM 26.1 °F - 21.0 °F 81% 30.03 in 10.0 mi Calm Calm - N/A   Clear
4:57 AM 25.0 °F - 19.9 °F 81% 30.04 in 10.0 mi Calm Calm - N/A   Clear
5:57 AM 24.1 °F - 19.9 °F 84% 30.06 in 10.0 mi Calm Calm - N/A   Clear
6:57 AM 30.9 °F 27.5 °F 25.0 °F 79% 30.06 in 10.0 mi SSW 3.5 mph - N/A   Clear
7:57 AM 45.0 °F 39.3 °F 27.0 °F 49% 30.04 in 10.0 mi ENE 11.5 mph - N/A   Clear
8:57 AM 48.0 °F - 26.1 °F 42% 30.04 in 10.0 mi NE 13.8 mph 24.2 mph N/A   Clear
9:57 AM 52.0 °F - 25.0 °F 35% 30.06 in 10.0 mi East 12.7 mph - N/A   Clear
10:57 AM 54.0 °F - 23.0 °F 30% 30.06 in 10.0 mi NNE 17.3 mph 24.2 mph N/A   Clear
11:57 AM 55.9 °F - 19.9 °F 25% 30.08 in 10.0 mi NE 17.3 mph 26.5 mph N/A   Clear
12:57 PM 57.0 °F - 16.0 °F 20% 30.08 in 10.0 mi ENE 12.7 mph 25.3 mph N/A   Clear
1:57 PM 59.0 °F - 12.0 °F 16% 30.06 in 10.0 mi ENE 10.4 mph 18.4 mph N/A   Clear
2:57 PM 60.1 °F - 12.0 °F 15% 30.06 in 10.0 mi ENE 11.5 mph - N/A   Clear
3:57 PM 62.1 °F - 12.9 °F 15% 30.05 in 10.0 mi NE 12.7 mph 18.4 mph N/A   Clear
4:57 PM 60.1 °F - 12.9 °F 16% 30.05 in 10.0 mi ENE 8.1 mph - N/A   Clear
5:57 PM 57.9 °F - 14.0 °F 18% 30.08 in 10.0 mi ENE 8.1 mph - N/A   Clear
6:57 PM 52.0 °F - 15.1 °F 23% 30.09 in 10.0 mi East 3.5 mph - N/A   Clear
7:57 PM 43.0 °F - 16.0 °F 34% 30.09 in 10.0 mi Calm Calm - N/A   Clear
8:57 PM 37.9 °F - 16.0 °F 41% 30.12 in 10.0 mi Calm Calm - N/A   Clear
9:57 PM 34.0 °F - 16.0 °F 48% 30.13 in 10.0 mi Calm Calm - N/A   Clear
10:57 PM 30.0 °F - 16.0 °F 56% 30.14 in 10.0 mi Calm Calm - N/A   Clear
11:57 PM 28.9 °F - 16.0 °F 58% 30.14 in 10.0 mi Calm Calm - N/A   Clear